Regional Weather Roundup
Issued by NWS

Home | Current Version | Previous Version | Text Only | Print | Product List | Glossary On
Versions: 1 2 3 4 5 6 7 8 9 10 11 12 13 14 15 16 17 18 19 20 21 22 23 24 25 26 27 28 29 30 31 32 33 34 35 36 37 38 39 40 41 42 43 44 45 46 47 48 49 50
000
ASUS43 KTOP 191959
RWRKS

WEATHER ROUNDUP FOR KANSAS
NATIONAL WEATHER SERVICE GOODLAND KS
300 PM CDT TUE SEP 19 2017

NOTE:  "FAIR" INDICATES FEW OR NO CLOUDS BELOW 12,000 FEET WITH NO
SIGNIFICANT WEATHER AND/OR OBSTRUCTIONS TO VISIBILITY.

KSZ001>006-013>018-027>032-041>047-192100-
NORTHWEST KANSAS

CITY           SKY/WX    TMP DP  RH WIND       PRES   REMARKS
GOODLAND       CLOUDY    90  24   9 SW17G31   29.58F
HAYS           SUNNY     99  55  23 S28G36    29.55F HX  97
HILL CITY      SUNNY    100  42  13 S25G35    29.54F HX  95
RUSSELL        SUNNY     96  60  30 S30G41    29.57F HX  96
$$

KSZ061>065-074>080-084>089-192100-
SOUTHWEST KANSAS

CITY           SKY/WX    TMP DP  RH WIND       PRES   REMARKS
DODGE CITY     SUNNY     99  41  13 S32G38    29.63F
ELKHART          N/A     90  33  13 S22         N/A
GARDEN CITY    SUNNY     98  37  12 S25G40    29.62F
GREAT BEND     SUNNY     97  62  31 S26G36    29.60F HX  98
LIBERAL        SUNNY     93  39  15 SW30G36   29.68F
$$

KSZ066>073-081>083-090>101-192100-
SOUTHEAST KANSAS

CITY           SKY/WX    TMP DP  RH WIND       PRES   REMARKS
CHANUTE        SUNNY     88  70  55 S18       29.78F
COFFEYVILLE    MOSUNNY   88  73  61 S17G29    29.78F HX  95
HUTCHINSON     SUNNY     96  68  39 S28G33    29.65F HX 101
NEWTON         SUNNY     90  70  51 S25G33    29.69F HX  95
WICHITA INTL   MOSUNNY   95  68  41 S29G38    29.67F HX  99
WICHITA JABRA  SUNNY     92  71  50 S26G37    29.68F HX  98
WINFIELD       SUNNY     94  71  47 S23G33    29.72F HX 101
$$

KSZ007>012-019>026-033>040-048>060-102>105-192100-
NORTHEAST KANSAS

CITY           SKY/WX    TMP DP  RH WIND       PRES   REMARKS
CONCORDIA      SUNNY     90  69  50 S25G33    29.60F
EMPORIA        SUNNY     90  70  51 S24G33    29.71F HX  95
LAWRENCE       SUNNY     89  70  53 SE18G29   29.73F
MANHATTAN      SUNNY     95  69  42 S22G33    29.63F HX 100
OLATHE IND     SUNNY     87  70  56 S15G25    29.78F
OLATHE EXE     MOSUNNY   85  71  63 S17G25    29.78F
SALINA         SUNNY     97  67  37 S24G33    29.61F HX 101
TOPEKA BILLARD SUNNY     90  71  53 SE18G28   29.71F HX  96
TOPEKA FORBES  SUNNY     90  70  51 SE21G30   29.71F HX  95
$$




USA.gov is the U.S. government's official web portal to all federal, state and local government web resources and services.